Tracking 31027 objects as of 18-Jul-2025
HD Live streaming from Space Station
objects crossing your sky now

YAOGAN-43 O1H

Track YAOGAN-43 O1H now!
10-day predictions
YAOGAN-43 O1H is classified as:


NORAD ID: 60465
Int'l Code: 2024-148H
Perigee: 500.9 km
Apogee: 507.6 km
Inclination: 35.0 °
Period: 94.6 minutes
Semi major axis: 6875 km
RCS: Unknown
Launch date: August 16, 2024
Source: People's Republic of China (PRC)
Launch site: Xichang Space Center, China (XSC)
Your satellite tracking list
Your tracking list is empty




NASA's NSSDC Master Catalog

Two Line Element Set (TLE):
1 60465U 24148H   25199.19613979  .00006529  00000-0  27318-3 0  9997
2 60465  34.9965 103.2122 0004889  34.7590 325.3443 15.22885054 51186
Source of the keplerian elements: AFSPC